This is the latest recevied weather packets stored in our database for station/object PD2BVG. If no packets are shown the sender has not sent any weather packets the latest 1 day(s).
| Time | Temp. | Humidity | Pressure | Rain* | Wind** | Luminosity | Snow |
|---|---|---|---|---|---|---|---|
| 1777952876 | 11.11° C | 90% | 1012.5 hPa | 0 mm | 1.79 m/s, 68° | 0 W/m² | - |
| 1777952815 | 11.11° C | 90% | 1012.5 hPa | 0 mm | 1.34 m/s, 345° | 0 W/m² | - |
| 1777952753 | 11.11° C | 90% | 1012.4 hPa | 0 mm | 1.79 m/s, 0° | 0 W/m² | - |
| 1777952693 | 11.11° C | 90% | 1012.4 hPa | 0 mm | 2.68 m/s, 0° | 0 W/m² | - |
| 1777952630 | 11.11° C | 90% | 1012.4 hPa | 0 mm | 2.68 m/s, 336° | 0 W/m² | - |
| 1777952571 | 11.11° C | 90% | 1012.4 hPa | 0 mm | 2.24 m/s, 0° | 0 W/m² | - |
| 1777952510 | 11.11° C | 90% | 1012.3 hPa | 0 mm | 1.79 m/s, 345° | 0 W/m² | - |
| 1777952453 | 11.11° C | 90% | 1012.4 hPa | 0 mm | 1.79 m/s, 0° | 0 W/m² | - |
| 1777952390 | 11.11° C | 90% | 1012.4 hPa | 0 mm | 1.79 m/s, 20° | 0 W/m² | - |
| 1777952328 | 11.11° C | 90% | 1012.4 hPa | 0 mm | 2.24 m/s, 14° | 0 W/m² | - |
| 1777952268 | 11.11° C | 90% | 1012.4 hPa | 0 mm | 2.68 m/s, 8° | 0 W/m² | - |
| 1777952210 | 11.11° C | 90% | 1012.4 hPa | 0 mm | 1.79 m/s, 0° | 0 W/m² | - |
| 1777952147 | 11.11° C | 90% | 1012.4 hPa | 0 mm | 1.34 m/s, 7° | 0 W/m² | - |
| 1777952087 | 11.11° C | 90% | 1012.5 hPa | 0 mm | 1.79 m/s, 6° | 0 W/m² | - |
| 1777952026 | 11.11° C | 90% | 1012.5 hPa | 0 mm | 1.79 m/s, 20° | 0 W/m² | - |
| 1777951966 | 11.11° C | 90% | 1012.4 hPa | 0 mm | 1.79 m/s, 31° | 0 W/m² | - |
| 1777951906 | 11.11° C | 90% | 1012.4 hPa | 0 mm | 2.24 m/s, 34° | 0 W/m² | - |
| 1777951845 | 11.11° C | 90% | 1012.4 hPa | 0 mm | 2.24 m/s, 44° | 0 W/m² | - |
| 1777951783 | 11.11° C | 90% | 1012.4 hPa | 0 mm | 1.79 m/s, 34° | 0 W/m² | - |
| 1777951722 | 11.11° C | 90% | 1012.5 hPa | 0 mm | 1.79 m/s, 41° | 0 W/m² | - |
| 1777951664 | 11.11° C | 90% | 1012.5 hPa | 0 mm | 2.24 m/s, 6° | 0 W/m² | - |
| 1777951601 | 11.11° C | 90% | 1012.4 hPa | 0 mm | 2.24 m/s, 20° | 0 W/m² | - |
| 1777951541 | 11.11° C | 90% | 1012.4 hPa | 0 mm | 2.24 m/s, 1° | 0 W/m² | - |
| 1777951482 | 11.11° C | 90% | 1012.4 hPa | 0 mm | 1.79 m/s, 76° | 0 W/m² | - |
| 1777951423 | 11.11° C | 90% | 1012.5 hPa | 0 mm | 1.79 m/s, 27° | 0 W/m² | - |
* Rain latest hour (hover to see other rain measurements)
** Current wind speed in m/s (hover to see current wind gust speed)